Back to catalog

STARLINK-3396

AliveCommunicationsVLEO
NORAD 51129·PAYLOAD·🇺🇸 United States

Launched Jan 19, 2022 from Cape Canaveral Space Force Station

Loading…

Next Passes (next 24 hours)

TLE

FreshSource: CelesTrak SupGP

Epoch: Sep 14, 2026, 22:01 UTC

1 51129C 22005AB  26257.91784722 -.00032040  00000+0 -91664-3 0  2575
2 51129  53.1590 163.7689 0001428  95.8968 302.6468 15.35415971    14

Track STARLINK-3396 in real time with AllMySat

Download on the App Store